Location: Grasslands National Park East Block
(49.0708°N, 106.5295°W)
Time: 22:54:24
(UTC-06:00)

S-56A Canister/Altair - All Passes

Search period start: 14 October 2019 00:00
Search period end: 24 October 2019 00:00
Orbit: 633 x 2499 km, 38.9° (Epoch: 13 October)

Date Brightness Start Highest point End Pass type
(mag) Time Alt. Az. Time Alt. Az. Time Alt. Az.
14 Oct - 05:11:16 10° SSW 05:18:11 32° SSE 05:27:49 10° E visible
14 Oct - 07:13:00 10° WSW 07:21:57 50° S 07:34:40 10° ESE daylight
14 Oct - 09:16:22 10° W 09:26:50 47° SSW 09:40:24 10° SE daylight
14 Oct - 11:21:17 10° W 11:31:36 29° SW 11:43:21 10° SSE daylight
15 Oct - 04:39:12 10° SSW 04:45:28 28° SE 04:54:00 10° E visible
15 Oct - 06:40:33 10° WSW 06:48:54 48° S 07:00:57 10° ESE visible
15 Oct - 08:43:39 10° W 08:53:35 47° S 09:06:54 10° SE daylight
15 Oct - 10:48:11 10° W 10:58:22 31° SSW 11:10:22 10° SSE daylight
15 Oct - 12:58:22 10° WSW 13:02:12 11° SW 13:06:07 10° SW daylight
16 Oct - 04:07:15 10° SSW 04:12:48 24° SE 04:20:10 10° E visible
16 Oct - 06:08:10 10° SW 06:15:55 45° SSE 06:27:14 10° E visible
16 Oct - 08:11:01 10° WSW 08:20:23 48° S 08:33:20 10° ESE daylight
16 Oct - 10:15:12 10° W 10:25:08 33° SSW 10:37:17 10° SSE daylight
16 Oct - 12:23:37 10° WSW 12:29:08 13° SW 12:34:59 10° SSW daylight
17 Oct - 03:35:27 10° S 03:40:13 20° SE 03:46:18 10° E visible
17 Oct - 05:35:51 10° SW 05:43:02 42° SSE 05:53:32 10° E visible
17 Oct - 07:38:26 10° WSW 07:47:15 48° S 07:59:44 10° ESE daylight
17 Oct - 09:42:20 10° W 09:51:56 34° SSW 10:04:05 10° SSE daylight
17 Oct - 11:49:35 10° WSW 11:56:04 15° SW 12:03:07 10° SSW daylight
18 Oct - 03:03:52 10° S 03:07:41 16° SE 03:12:20 10° ESE visible
18 Oct - 05:03:35 10° SW 05:10:14 38° SSE 05:19:51 10° E visible
18 Oct - 07:05:56 10° WSW 07:14:12 47° S 07:26:07 10° ESE daylight
18 Oct - 09:09:32 10° W 09:18:46 35° SSW 09:30:48 10° SE daylight
18 Oct - 11:15:56 10° WSW 11:23:00 17° SW 11:30:52 10° S daylight
19 Oct - 02:32:42 10° SSE 02:35:12 12° SE 02:38:03 10° ESE visible
19 Oct - 04:31:24 10° SW 04:37:29 35° SSE 04:46:12 10° E visible
19 Oct - 06:33:29 10° WSW 06:41:11 46° S 06:52:29 10° ESE visible
19 Oct - 08:36:50 10° W 08:45:38 37° SSW 08:57:27 10° SE daylight
19 Oct - 10:42:34 10° WSW 10:49:54 19° SW 10:58:22 10° S daylight
20 Oct - 03:59:15 10° SW 04:04:49 31° SSE 04:12:36 10° E visible
20 Oct - 06:01:05 10° WSW 06:08:16 45° S 06:18:51 10° ESE visible
20 Oct - 08:04:13 10° W 08:12:33 37° SSW 08:24:02 10° SE daylight
20 Oct - 10:09:23 10° WSW 10:16:50 20° SW 10:25:40 10° S daylight
21 Oct - 03:27:12 10° SSW 03:32:14 27° SSE 03:39:02 10° E visible
21 Oct - 05:28:45 10° WSW 05:35:25 43° S 05:45:16 10° ESE visible
21 Oct - 07:31:40 10° W 07:39:32 38° SSW 07:50:35 10° SE daylight
21 Oct - 09:36:22 10° WSW 09:43:47 21° SSW 09:52:49 10° S daylight
22 Oct - 02:55:13 10° SSW 02:59:41 23° SSE 03:05:29 10° ESE visible
22 Oct - 04:56:27 10° WSW 05:02:38 41° S 05:11:42 10° ESE visible
22 Oct - 06:59:10 10° WSW 07:06:34 38° SSW 07:17:06 10° SE visible
22 Oct - 09:03:29 10° WSW 09:10:45 23° SSW 09:19:51 10° SSE daylight
23 Oct - 02:23:20 10° SSW 02:27:11 19° SSE 02:31:57 10° ESE visible
23 Oct - 04:24:11 10° SW 04:29:55 38° S 04:38:12 10° ESE visible
23 Oct - 06:26:43 10° WSW 06:33:39 38° S 06:43:38 10° SE visible
23 Oct - 08:30:42 10° WSW 08:37:45 24° SSW 08:46:47 10° SSE daylight
